EW9304 Weather Reports


Display with metric or nautical units.
time (UTC)temp
F
wind
direction
speed
MPH
gust
MPH
rain 1hr
in
rain 24hr
in
rain mn
in
humidity
%
barometer
mb
20260509161510 62 354 0.0 0.0 0.00 0.00 0.00 65 997.7
20260509160009 61 304 0.0 0.0 0.00 0.00 0.00 68 998.1
20260509154510 62 163 0.0 0.0 0.00 0.00 0.00 65 997.9
20260509153007 62 211 0.0 0.0 0.00 0.00 0.00 65 998.1
20260509151505 61 150 0.0 0.0 0.00 0.00 0.00 67 998.0
20260509150002 60 122 0.0 0.0 0.00 0.00 0.00 70 998.1
20260509144600 59 128 0.0 0.0 0.00 0.00 0.00 71 998.4
20260509143057 58 131 0.0 0.0 0.00 0.00 0.00 76 998.3
20260509141601 57 153 0.0 0.0 0.00 0.00 0.00 78 998.2
20260509140059 56 117 0.0 0.0 0.00 0.00 0.00 78 997.9
20260509134545 56 117 0.0 0.0 0.00 0.00 0.00 79 997.9
20260509133044 55 120 0.0 0.0 0.00 0.00 0.00 79 997.9
20260509131544 55 151 0.0 0.0 0.00 0.00 0.00 83 998.0
20260509130047 54 120 0.0 0.0 0.00 0.00 0.00 83 998.1
20260509124542 54 122 0.0 0.0 0.00 0.00 0.00 84 998.0
20260509123051 54 122 0.0 0.0 0.00 0.00 0.00 84 998.0
20260509121538 54 120 0.0 0.0 0.00 0.00 0.00 85 998.2
20260509120037 53 166 0.0 0.0 0.00 0.00 0.00 85 998.1
20260509114539 53 167 0.0 0.0 0.00 0.00 0.00 86 998.2
20260509113040 52 167 0.0 0.0 0.00 0.00 0.00 85 998.0
20260509111633 52 323 0.0 0.0 0.00 0.00 0.00 84 997.7
20260509110032 52 323 0.0 0.0 0.00 0.00 0.00 81 997.7
20260509104531 52 39 0.0 0.0 0.00 0.00 0.00 79 997.9
20260509103030 52 6 0.0 0.0 0.00 0.00 0.00 78 997.6
20260509101533 52 6 0.0 0.0 0.00 0.00 0.00 80 997.4
20260509100035 52 6 0.0 0.0 0.00 0.00 0.00 80 997.2
20260509094530 52 6 0.0 0.0 0.00 0.00 0.00 79 997.2
20260509093028 52 6 0.0 0.0 0.00 0.00 0.00 79 997.2
20260509091533 52 6 0.0 0.0 0.00 0.00 0.00 78 997.1
20260509090027 52 6 0.0 0.0 0.00 0.00 0.00 77 997.1
20260509084525 52 6 0.0 0.0 0.00 0.00 0.00 76 997.2
20260509083038 53 6 0.0 0.0 0.00 0.00 0.00 76 997.3
20260509081525 53 6 0.0 0.0 0.00 0.00 0.00 74 997.3
20260509080025 53 6 0.0 0.0 0.00 0.00 0.00 76 997.4
20260509074522 53 6 0.0 0.0 0.00 0.00 0.00 77 997.3
20260509073019 52 338 0.0 0.0 0.00 0.00 0.00 75 997.3
20260509071519 52 338 0.0 0.0 0.00 0.00 0.00 78 997.3
20260509070019 51 338 0.0 0.0 0.00 0.00 0.00 77 997.4
20260509064527 51 338 0.0 0.0 0.00 0.00 0.00 76 997.4
20260509063013 52 338 0.0 0.0 0.00 0.00 0.00 74 997.5
20260509061532 53 338 0.0 0.0 0.00 0.00 0.00 69 997.7
20260509060011 54 338 0.0 0.0 0.00 0.00 0.00 66 997.8
20260509054508 53 338 0.0 0.0 0.00 0.00 0.00 69 997.8
20260509053009 51 338 0.0 0.0 0.00 0.00 0.00 76 997.9
20260509051502 50 338 0.0 0.0 0.00 0.00 0.00 80 997.8
20260509050005 50 338 0.0 0.0 0.00 0.00 0.00 80 997.8
20260509044602 49 338 0.0 0.0 0.00 0.00 0.00 79 997.8
20260509043100 50 338 0.0 0.0 0.00 0.00 0.00 77 998.0
20260509041554 50 338 0.0 0.0 0.00 0.00 0.00 76 998.1
20260509040052 50 338 0.0 0.0 0.00 0.00 0.00 73 998.1
20260509034600 51 338 0.0 0.0 0.00 0.00 0.00 73 998.2
20260509033051 51 338 0.0 0.0 0.00 0.00 0.00 74 998.2
20260509031551 52 338 0.0 0.0 0.00 0.00 0.00 74 998.2
20260509030051 53 338 0.0 0.0 0.00 0.00 0.00 72 998.2
20260509024552 53 338 0.0 0.0 0.00 0.00 0.00 71 998.3
20260509023049 54 338 0.0 0.0 0.00 0.00 0.00 68 998.5
20260509021549 55 338 0.0 0.0 0.00 0.00 0.00 67 998.6
20260509020049 55 338 0.0 0.0 0.00 0.00 0.00 67 998.7
20260509014550 56 338 0.0 0.0 0.00 0.00 0.00 64 998.4
20260509013048 57 338 0.0 0.0 0.00 0.00 0.00 62 998.4
20260509011548 58 338 0.0 0.0 0.00 0.00 0.00 59 998.3
20260509010047 60 338 0.0 0.0 0.00 0.00 0.00 58 998.3
20260509004548 60 338 0.0 0.0 0.00 0.00 0.00 55 998.4
20260509003046 61 338 0.0 0.0 0.00 0.00 0.00 55 998.3
20260509001545 62 338 0.0 0.0 0.00 0.00 0.00 52 998.1
20260509000045 63 338 0.0 0.0 0.00 0.00 0.00 48 998.0
20260508234547 64 338 0.0 0.0 0.00 0.00 0.00 47 997.9
20260508233045 65 338 0.0 0.0 0.00 0.00 0.00 47 997.8
20260508231604 66 338 0.0 0.0 0.00 0.00 0.00 44 997.8
20260508230056 67 338 0.0 0.0 0.00 0.00 0.00 42 997.7
20260508224542 67 338 0.0 0.0 0.00 0.00 0.00 40 997.7
20260508223045 67 338 0.0 0.0 0.00 0.00 0.00 38 997.8
20260508221540 68 320 0.0 0.0 0.00 0.00 0.00 38 997.8
20260508220043 68 13 0.0 0.0 0.00 0.00 0.00 36 997.7
20260508214554 68 290 0.0 0.0 0.00 0.00 0.00 36 997.8
20260508213046 67 288 0.0 0.0 0.00 0.00 0.00 36 997.9
20260508211541 67 293 0.0 0.0 0.00 0.00 0.00 35 998.0
20260508210036 68 283 0.0 0.0 0.00 0.00 0.00 33 998.0
20260508204535 68 286 0.0 4.0 0.00 0.00 0.00 33 998.0
20260508203034 68 207 0.0 4.0 0.00 0.00 0.00 32 998.0
20260508201535 69 261 0.0 4.0 0.00 0.00 0.00 32 998.2
20260508200036 71 290 0.0 6.0 0.00 0.00 0.00 31 998.2
20260508194531 72 268 0.0 1.0 0.00 0.00 0.00 28 998.2
20260508193036 72 283 0.0 8.0 0.00 0.00 0.00 30 998.4
20260508191536 70 269 0.0 3.0 0.00 0.00 0.00 31 998.6
20260508190031 69 295 0.0 8.0 0.00 0.00 0.00 30 998.8
20260508184526 70 258 0.0 5.0 0.00 0.00 0.00 30 999.0
20260508183032 70 281 2.0 12.0 0.00 0.00 0.00 31 999.2
20260508181524 70 8 0.0 6.0 0.00 0.00 0.00 33 999.3
20260508180024 70 120 0.0 8.0 0.00 0.00 0.00 32 999.3
20260508174523 71 293 0.0 0.0 0.00 0.00 0.00 31 999.8
20260508173020 70 288 0.0 8.0 0.00 0.00 0.00 30 999.7
20260508171519 69 64 0.0 0.0 0.00 0.00 0.00 34 999.9
20260508170017 67 116 0.0 2.0 0.00 0.00 0.00 37 1000.2
20260508164518 67 262 0.0 7.0 0.00 0.00 0.00 34 1000.4
20260508163014 66 153 0.0 10.0 0.00 0.00 0.00 39 1000.5